MDT,Max TemperatureF,Mean TemperatureF,Min TemperatureF,Max Dew PointF,MeanDew PointF,Min DewpointF,Max Humidity, Mean Humidity, Min Humidity, Max Sea Level PressureIn, Mean Sea Level PressureIn, Min Sea Level PressureIn, Max VisibilityMiles, Mean VisibilityMiles, Min VisibilityMiles, Max Wind SpeedMPH, Mean Wind SpeedMPH, Max Gust SpeedMPH,PrecipitationIn, CloudCover, Events, WindDirDegrees
2013-9-1,80,72,64,63,57,55,77,62,42,30.13,30.07,30.00,15,12,10,10,4,,0.00,4,,140
2013-9-2,87,78,69,64,60,52,78,64,29,30.14,30.08,30.02,15,11,8,12,5,28,0.01,6,Rain-Thunderstorm,126
2013-9-3,86,73,60,63,58,55,83,70,35,30.19,30.15,30.11,15,12,7,17,5,,0.00,1,,141
2013-9-4,87,74,60,63,58,54,88,70,31,30.26,30.20,30.13,15,12,10,17,5,17,0.00,1,,134
2013-9-5,91,78,66,59,55,48,68,52,23,30.21,30.15,30.07,15,12,10,25,8,24,0.00,4,,155
2013-9-6,93,78,64,59,54,46,73,55,21,30.18,30.13,30.02,15,11,5,18,6,25,0.00,2,,127
2013-9-7,84,72,60,61,57,54,94,71,37,30.27,30.15,30.05,15,11,6,45,6,59,0.02,2,Rain-Thunderstorm,151
2013-9-8,71,66,60,61,57,54,94,81,60,30.17,30.10,30.02,15,12,10,9,5,,0.02,4,,89
2013-9-9,75,66,57,55,54,50,88,70,44,30.04,30.01,29.95,15,12,10,15,3,,0.00,2,,187
2013-9-10,77,70,62,57,54,48,82,60,38,30.05,30.00,29.98,15,12,10,9,3,,0.00,6,,239
2013-9-11,75,68,60,61,56,52,88,68,47,30.12,30.08,30.03,15,12,9,20,7,22,0.10,6,,198
2013-9-12,71,65,59,57,54,46,82,65,52,30.18,30.10,30.04,15,12,9,13,6,,0.00,6,Thunderstorm,162
2013-9-13,71,65,59,59,57,55,94,82,57,30.08,30.01,29.94,15,12,10,17,2,25,0.11,6,Thunderstorm,102
2013-9-14,71,64,57,57,55,54,94,81,57,30.02,29.98,29.96,15,12,10,12,3,,0.00,6,,119
2013-9-15,77,65,53,57,53,50,94,76,41,30.11,30.05,30.02,15,12,10,8,4,,0.00,2,,144
2013-9-16,84,68,53,59,53,48,88,65,30,30.13,30.05,29.96,15,12,10,15,4,,0.00,3,Rain-Thunderstorm,147
2013-9-17,86,76,66,55,51,43,64,48,29,29.98,29.88,29.73,15,12,10,21,12,26,0.00,3,Rain-Thunderstorm,145
2013-9-18,71,61,51,48,42,37,76,47,35,30.09,29.91,29.75,15,12,10,21,12,26,0.00,1,,309
2013-9-19,78,60,42,43,38,30,81,61,21,30.20,30.14,30.09,20,12,10,10,5,,0.00,0,,107
2013-9-20,78,61,44,55,39,34,81,53,31,30.13,30.05,29.89,15,12,10,16,5,,0.00,0,,160
2013-9-21,84,68,53,48,40,36,54,41,18,29.96,29.85,29.68,15,12,10,22,10,25,0.00,2,,145
2013-9-22,71,62,53,50,44,37,67,53,29,29.90,29.73,29.66,15,12,10,21,6,30,0.00,5,,112
2013-9-23,66,57,48,55,40,37,77,56,35,30.13,30.05,29.91,15,12,10,13,8,,0.00,2,,331
2013-9-24,78,60,42,39,36,28,81,50,17,30.12,29.98,29.75,15,11,10,22,5,30,0.00,1,,167
2013-9-25,69,56,44,41,37,34,81,48,28,29.82,29.72,29.62,15,11,10,25,15,26,0.00,3,,188
2013-9-26,57,50,42,41,38,36,87,73,44,29.88,29.80,29.72,15,12,10,17,5,,0.00,6,Rain,357
2013-9-27,48,44,37,39,37,32,87,78,62,30.23,30.04,29.88,15,11,4,17,7,26,0.00,6,Rain,112
2013-9-28,64,48,32,45,34,28,93,72,30,30.30,30.22,30.16,15,12,10,8,4,,0.00,0,,129
2013-9-29,73,55,37,39,34,28,87,57,19,30.17,30.10,29.99,15,12,10,16,4,,0.00,3,,116
2013-9-30,78,62,46,45,38,32,71,51,20,30.01,29.97,29.90,15,11,9,17,4,,0.00,1,,132